Location: �chenoz-la-M�line
(47.6009°N, 6.1354°E)
Time: 12:08:35
(UTC+00:00)

Cosmos 1570 Rocket - Pass Details

Date: 27 January 2021
Orbit: 762 x 789 km, 74.1° (Epoch: 02 March)

Event Time Altitude Azimuth Distance (km) Brightness Sun altitude
Exits shadow 04:57:38 50° 258° (WSW) 969 4.1 -21.9°
Maximum altitude 04:58:30 57° 296° (WNW) 901 4.0 -21.8°
Drops below altitude 10° 05:03:41 10° 16° (NNE) 2,322 6.6 -20.9°
Sets 05:06:08 0° 20° (NNE) 3,256 7.4 -20.5°
